Weather in Gilyar

Russia / Republic of Dagestan     41°33′25″N   48°15′17″E
temp.,
°C
wind,
m/s
gust,
m/s
humid.,
%
clouds,
%
prec.,
mm/h
press.,
hPa
HPBL,
m
20 may, fri
fri2000:00+12n01755 0.0 101311
03:00+10s2290100 0.0 101319
06:00+11ene459787 0.1 1013350
09:00+8ne3598100 0.8 1017512
12:00+7ne1290100 0.6 1019405
15:00+7sw3389100 2.6 1018347
18:00+7sw5687100 5.8 1018269
21:00+6sw6890100 14.5 1020277
21 may, sat
sat2100:00+7sw4583100 2.1 101892
03:00+6wsw227637 2.1 101918
06:00+8sw33751 0.0 1020101
09:00+13e21550 0.0 1019802
12:00+15e335332 0.0 10181435
15:00+16ese435448 0.1 10171352
18:00+12e23693 0.0 1018183
21:00+8sw44705 0.0 101837
22 may, sun
sun2200:00+9sw44510 0.0 101646
03:00+10sw56450 0.0 101463
06:00+12sw55560 0.0 101285
09:00+19e22360 0.0 1010769
12:00+21ese44380 0.0 10071315
15:00+22ese45380 0.0 10051033
18:00+18nw01570 0.0 100416
21:00+14sw67360 0.0 100375
23 may, mon
mon2300:00+14wsw55380 0.0 100254
03:00+14sw44420 0.0 100139
06:00+16sw44570 0.0 100158
09:00+17ne32530 0.0 1003427
12:00+19ne5358100 0.0 10021112
15:00+15nne5579100 0.1 1003701
18:00+12n2581100 0.0 1004600
21:00+11w358095 0.1 1003245
24 may, tue
tue2400:00+11sw3365100 0.0 100361
03:00+10wsw5672100 0.8 1004147
06:00+9wsw4685100 3.8 1006155
09:00+11nw127398 3.8 1007674
12:00+12ne3279100 0.4 1008620
15:00+10ne3590100 2.9 1009445
18:00+9w0196100 5.1 1013132
21:00+9sw338694 5.5 101468